Location: Wien
(48.2082°N, 16.3738°E)
Time: 00:13:28
(UTC+02:00)

O/OREOS (USA 219) - Visible Passes

Search period start: 25 April 2024 00:00
Search period end: 05 May 2024 00:00
Orbit: 621 x 646 km, 72.0° (Epoch: 22 May)

Date Brightness Start Highest point End Pass type
(mag) Time Alt. Az. Time Alt. Az. Time Alt. Az.
25 Apr ? 02:16:54 10° N 02:19:58 18° NE 02:23:01 10° E visible
25 Apr ? 03:55:26 10° NNW 03:59:56 75° WSW 04:04:23 10° SSE visible
26 Apr ? 02:38:23 10° N 02:42:24 30° NE 02:46:22 10° ESE visible
26 Apr ? 04:17:45 10° NW 04:21:51 35° WSW 04:25:55 10° S visible
27 Apr ? 01:22:48 10° NNE 01:24:14 11° NE 01:25:39 10° ENE visible
27 Apr ? 03:00:12 10° NNW 03:04:40 59° ENE 03:09:03 10° SE visible
27 Apr ? 04:40:39 10° WNW 04:43:36 17° W 04:46:22 11° SW visible
28 Apr ? 01:43:36 10° N 01:46:50 19° NE 01:50:03 10° E visible
28 Apr ? 03:22:16 10° NNW 03:26:43 68° WSW 03:29:07 26° S visible
29 Apr ? 02:05:09 10° N 02:09:14 33° NE 02:12:15 16° ESE visible
29 Apr ? 03:44:38 10° NW 03:48:37 32° WSW 03:49:37 29° SW visible
30 Apr ? 00:49:20 10° NNE 00:51:08 12° NE 00:52:55 10° ENE visible
30 Apr ? 02:27:00 10° NNW 02:31:29 65° ENE 02:32:59 39° SE visible
30 Apr ? 04:07:40 10° WNW 04:10:21 16° W 04:10:22 16° W visible
01 May ? 01:10:19 10° N 01:13:42 20° NE 01:16:31 12° E visible
01 May ? 02:49:05 10° NNW 02:53:31 61° WSW 02:53:54 58° SW visible
02 May ? 01:31:55 10° NNW 01:36:05 36° NE 01:37:33 28° E visible
02 May ? 03:11:31 10° NW 03:14:57 28° W 03:14:57 28° W visible
03 May ? 00:15:54 10° NNE 00:18:01 13° NE 00:20:07 10° ENE visible
03 May ? 01:53:47 10° NNW 01:58:18 72° ENE 01:58:41 67° ESE visible
03 May ? 03:34:44 10° WNW 03:36:05 13° W 03:36:05 13° W visible
04 May ? 00:37:02 10° N 00:40:33 22° NE 00:42:28 17° E visible
04 May ? 02:15:55 10° NW 02:19:53 52° W 02:19:53 52° W visible
